Location: Gleizolles
(44.4833°N, 6.7667°E)
Time: 10:28:43
(UTC+00:00)

A-11 Canister half - Pass Details

Date: 14 June 2024
Orbit: 1515 x 1685 km, 47.2° (Epoch: 13 July)

Event Time Altitude Azimuth Distance (km) Brightness Sun altitude
Rises 22:05:52 0° 271° (W) 4,887 11.9 -19.3°
Reaches altitude 10° 22:09:04 10° 273° (W) 3,881 11.4 -19.5°
Maximum altitude 22:18:59 76° 360° (N) 1,643 9.2 -20.1°
Drops below altitude 10° 22:28:32 10° 86° (E) 3,744 10.9 -20.6°
Sets 22:31:34 0° 89° (E) 4,709 11.4 -20.7°
